| time (UTC) | temp F | wind direction | speed knots | gust knots | rain 1hr in | rain 24hr in | rain mn in | humidity % | barometer mb |
| 20260506162552 | 61 | 228 | 0.9 | 4.3 | 0.04 | 0.04 | 0.04 | 94 | 1008.8 |
| 20260506162052 | 61 | 213 | 0.9 | 4.3 | 0.03 | 0.03 | 0.03 | 93 | 1009.0 |
| 20260506161555 | 61 | 194 | 0.0 | 4.3 | 0.02 | 0.02 | 0.02 | 92 | 1009.1 |
| 20260506161052 | 61 | 192 | 0.9 | 3.5 | 0.02 | 0.02 | 0.02 | 92 | 1009.3 |
| 20260506160552 | 61 | 0 | 0.0 | 2.6 | 0.01 | 0.01 | 0.01 | 92 | 1009.3 |
| 20260506160055 | 61 | 0 | 0.0 | 3.5 | 0.01 | 0.01 | 0.01 | 92 | 1009.3 |
| 20260506155555 | 62 | 190 | 0.0 | 3.5 | 0.01 | 0.01 | 0.01 | 91 | 1009.5 |
| 20260506155055 | 62 | 209 | 0.0 | 3.5 | 0.00 | 0.00 | 0.00 | 91 | 1009.5 |
| 20260506154610 | 62 | 0 | 0.0 | 4.3 | 0.00 | 0.00 | 0.00 | 90 | 1009.5 |
| 20260506154052 | 62 | 197 | 0.9 | 4.3 | 0.00 | 0.00 | 0.00 | 89 | 1009.6 |
| 20260506153552 | 63 | 0 | 0.0 | 3.5 | 0.00 | 0.00 | 0.00 | 89 | 1009.5 |
| 20260506153053 | 63 | 0 | 0.0 | 4.3 | 0.00 | 0.00 | 0.00 | 89 | 1009.4 |
| 20260506152552 | 63 | 176 | 0.9 | 4.3 | 0.00 | 0.00 | 0.00 | 88 | 1009.4 |
| 20260506152052 | 63 | 198 | 0.9 | 6.1 | 0.00 | 0.00 | 0.00 | 88 | 1009.4 |
| 20260506151554 | 63 | 185 | 0.9 | 6.1 | 0.00 | 0.00 | 0.00 | 87 | 1009.4 |
| 20260506151052 | 63 | 178 | 0.9 | 4.3 | 0.00 | 0.00 | 0.00 | 86 | 1009.4 |
| 20260506150553 | 63 | 189 | 0.0 | 5.2 | 0.00 | 0.00 | 0.00 | 86 | 1009.3 |
| 20260506150055 | 64 | 210 | 0.0 | 7.0 | 0.00 | 0.00 | 0.00 | 85 | 1009.3 |
| 20260506145553 | 64 | 173 | 0.9 | 7.8 | 0.00 | 0.00 | 0.00 | 82 | 1009.3 |
| 20260506145052 | 65 | 117 | 1.7 | 7.8 | 0.00 | 0.00 | 0.00 | 81 | 1009.5 |
| 20260506144559 | 65 | 133 | 1.7 | 7.0 | 0.00 | 0.00 | 0.00 | 79 | 1009.6 |
| 20260506144054 | 66 | 174 | 1.7 | 7.0 | 0.00 | 0.00 | 0.00 | 78 | 1009.5 |
| 20260506143555 | 66 | 201 | 2.6 | 7.0 | 0.00 | 0.00 | 0.00 | 77 | 1009.5 |
| 20260506143055 | 66 | 187 | 1.7 | 6.1 | 0.00 | 0.00 | 0.00 | 78 | 1009.5 |
| 20260506142553 | 66 | 198 | 1.7 | 6.1 | 0.00 | 0.00 | 0.00 | 78 | 1009.5 |
| 20260506142052 | 65 | 200 | 2.6 | 6.1 | 0.00 | 0.00 | 0.00 | 77 | 1009.4 |
| 20260506141555 | 65 | 182 | 0.9 | 5.2 | 0.00 | 0.00 | 0.00 | 78 | 1009.5 |
| 20260506141055 | 65 | 185 | 1.7 | 5.2 | 0.00 | 0.00 | 0.00 | 78 | 1009.4 |
| 20260506140555 | 65 | 187 | 1.7 | 6.1 | 0.00 | 0.00 | 0.00 | 78 | 1009.3 |
| 20260506140054 | 65 | 201 | 1.7 | 6.1 | 0.00 | 0.00 | 0.00 | 78 | 1009.3 |
| 20260506135552 | 65 | 0 | 1.7 | 6.1 | 0.00 | 0.00 | 0.00 | 78 | 1009.3 |
| 20260506135052 | 65 | 185 | 1.7 | 13.9 | 0.00 | 0.00 | 0.00 | 78 | 1009.3 |
| 20260506134552 | 65 | 167 | 2.6 | 13.9 | 0.00 | 0.00 | 0.00 | 77 | 1009.4 |
| 20260506134055 | 65 | 169 | 1.7 | 6.1 | 0.00 | 0.00 | 0.00 | 78 | 1009.4 |
| 20260506133553 | 65 | 188 | 1.7 | 7.0 | 0.00 | 0.00 | 0.00 | 78 | 1009.5 |
| 20260506133116 | 65 | 132 | 1.7 | 7.0 | 0.00 | 0.00 | 0.00 | 78 | 1009.6 |
| 20260506132552 | 65 | 191 | 2.6 | 6.1 | 0.00 | 0.00 | 0.00 | 78 | 1009.7 |
| 20260506132053 | 65 | 171 | 0.9 | 7.8 | 0.00 | 0.00 | 0.00 | 78 | 1009.8 |
| 20260506131555 | 65 | 217 | 2.6 | 7.8 | 0.00 | 0.00 | 0.00 | 78 | 1009.6 |
| 20260506131052 | 65 | 183 | 0.9 | 7.0 | 0.00 | 0.00 | 0.00 | 78 | 1009.8 |
| 20260506130552 | 65 | 182 | 1.7 | 7.0 | 0.00 | 0.00 | 0.00 | 79 | 1009.6 |
| 20260506130120 | 65 | 208 | 2.6 | 7.8 | 0.00 | 0.00 | 0.00 | 79 | 1009.6 |
| 20260506125552 | 64 | 169 | 0.9 | 7.8 | 0.00 | 0.00 | 0.00 | 79 | 1009.7 |
| 20260506125052 | 64 | 182 | 2.6 | 7.8 | 0.00 | 0.00 | 0.00 | 78 | 1009.7 |
| 20260506124554 | 64 | 180 | 0.9 | 6.1 | 0.00 | 0.00 | 0.00 | 79 | 1009.6 |
| 20260506124052 | 64 | 212 | 0.9 | 6.1 | 0.00 | 0.00 | 0.00 | 78 | 1009.3 |
| 20260506123552 | 64 | 188 | 0.9 | 3.5 | 0.00 | 0.00 | 0.00 | 80 | 1009.4 |
| 20260506123054 | 64 | 177 | 0.0 | 5.2 | 0.00 | 0.00 | 0.00 | 80 | 1009.4 |
| 20260506122553 | 64 | 179 | 1.7 | 5.2 | 0.00 | 0.00 | 0.00 | 80 | 1009.3 |
| 20260506122051 | 64 | 186 | 0.9 | 6.1 | 0.00 | 0.00 | 0.00 | 79 | 1009.4 |
| 20260506121555 | 64 | 205 | 1.7 | 6.1 | 0.00 | 0.00 | 0.00 | 80 | 1009.4 |
| 20260506121053 | 64 | 142 | 0.9 | 5.2 | 0.00 | 0.00 | 0.00 | 79 | 1009.5 |
| 20260506120552 | 64 | 200 | 1.7 | 5.2 | 0.00 | 0.00 | 0.00 | 80 | 1009.5 |
| 20260506120054 | 64 | 232 | 0.9 | 6.1 | 0.00 | 0.00 | 0.00 | 81 | 1009.5 |
| 20260506115557 | 63 | 194 | 0.9 | 6.1 | 0.00 | 0.00 | 0.00 | 80 | 1009.5 |
| 20260506115053 | 64 | 188 | 0.9 | 5.2 | 0.00 | 0.00 | 0.00 | 80 | 1009.6 |
| 20260506114604 | 64 | 213 | 0.9 | 5.2 | 0.00 | 0.00 | 0.00 | 80 | 1009.6 |
| 20260506114052 | 64 | 183 | 0.9 | 10.4 | 0.00 | 0.00 | 0.00 | 81 | 1009.7 |
| 20260506113552 | 64 | 246 | 2.6 | 10.4 | 0.00 | 0.00 | 0.00 | 80 | 1009.8 |
| 20260506113052 | 64 | 188 | 1.7 | 8.7 | 0.00 | 0.00 | 0.00 | 80 | 1009.7 |
| 20260506112553 | 63 | 175 | 1.7 | 8.7 | 0.00 | 0.00 | 0.00 | 80 | 1009.6 |
| 20260506112055 | 63 | 180 | 0.9 | 6.1 | 0.00 | 0.00 | 0.00 | 80 | 1009.5 |
| 20260506111553 | 63 | 196 | 0.9 | 7.0 | 0.00 | 0.00 | 0.00 | 81 | 1009.5 |
| 20260506111052 | 63 | 165 | 1.7 | 7.0 | 0.00 | 0.00 | 0.00 | 81 | 1009.6 |
| 20260506110552 | 63 | 192 | 1.7 | 7.0 | 0.00 | 0.00 | 0.00 | 80 | 1009.5 |
| 20260506110054 | 64 | 190 | 2.6 | 7.0 | 0.00 | 0.00 | 0.00 | 80 | 1009.4 |
| 20260506105553 | 64 | 262 | 1.7 | 7.0 | 0.00 | 0.00 | 0.00 | 80 | 1009.4 |
| 20260506105053 | 64 | 193 | 2.6 | 9.6 | 0.00 | 0.00 | 0.00 | 80 | 1009.3 |
| 20260506104623 | 64 | 178 | 2.6 | 9.6 | 0.00 | 0.00 | 0.00 | 81 | 1009.4 |
| 20260506104052 | 63 | 107 | 1.7 | 5.2 | 0.00 | 0.00 | 0.00 | 80 | 1009.3 |
| 20260506103553 | 63 | 194 | 1.7 | 5.2 | 0.00 | 0.00 | 0.00 | 81 | 1009.3 |
| 20260506103055 | 63 | 186 | 0.0 | 2.6 | 0.00 | 0.00 | 0.00 | 82 | 1009.3 |
| 20260506102553 | 63 | 0 | 0.0 | 2.6 | 0.00 | 0.00 | 0.00 | 82 | 1009.2 |
| 20260506102053 | 63 | 159 | 0.9 | 2.6 | 0.00 | 0.00 | 0.00 | 82 | 1009.3 |
| 20260506101556 | 63 | 204 | 0.0 | 3.5 | 0.00 | 0.00 | 0.00 | 82 | 1009.3 |
| 20260506101052 | 63 | 198 | 0.9 | 3.5 | 0.00 | 0.00 | 0.00 | 82 | 1009.3 |
| 20260506100552 | 63 | 0 | 0.0 | 1.7 | 0.00 | 0.00 | 0.00 | 82 | 1009.3 |
| 20260506100054 | 63 | 0 | 0.0 | 5.2 | 0.00 | 0.00 | 0.00 | 82 | 1009.3 |
| 20260506095554 | 63 | 0 | 0.9 | 5.2 | 0.00 | 0.01 | 0.00 | 82 | 1009.2 |
| 20260506095053 | 63 | 192 | 0.9 | 5.2 | 0.00 | 0.01 | 0.00 | 82 | 1009.2 |
| 20260506094553 | 63 | 0 | 0.9 | 3.5 | 0.00 | 0.01 | 0.00 | 82 | 1009.3 |
| 20260506094052 | 63 | 184 | 0.9 | 2.6 | 0.00 | 0.01 | 0.00 | 82 | 1009.3 |
| 20260506093552 | 63 | 232 | 0.0 | 4.3 | 0.00 | 0.01 | 0.00 | 82 | 1009.2 |
| 20260506093052 | 63 | 292 | 0.9 | 4.3 | 0.00 | 0.01 | 0.00 | 82 | 1009.2 |
| 20260506092553 | 63 | 234 | 0.0 | 4.3 | 0.00 | 0.01 | 0.00 | 82 | 1009.2 |
| 20260506092052 | 63 | 190 | 0.9 | 6.1 | 0.00 | 0.01 | 0.00 | 82 | 1009.3 |
| 20260506091555 | 63 | 242 | 0.0 | 6.1 | 0.00 | 0.01 | 0.00 | 82 | 1009.3 |
| 20260506091054 | 63 | 0 | 0.0 | 3.5 | 0.00 | 0.01 | 0.00 | 82 | 1009.3 |
| 20260506090553 | 63 | 208 | 0.0 | 2.6 | 0.00 | 0.01 | 0.00 | 82 | 1009.4 |
| 20260506090055 | 63 | 0 | 0.9 | 2.6 | 0.00 | 0.01 | 0.00 | 82 | 1009.5 |
| 20260506085552 | 63 | 196 | 0.0 | 3.5 | 0.00 | 0.01 | 0.00 | 82 | 1009.5 |
| 20260506085054 | 63 | 235 | 0.9 | 3.5 | 0.00 | 0.01 | 0.00 | 82 | 1009.4 |
| 20260506084555 | 63 | 0 | 0.0 | 3.5 | 0.00 | 0.01 | 0.00 | 81 | 1009.5 |
| 20260506084052 | 63 | 0 | 0.0 | 3.5 | 0.00 | 0.01 | 0.00 | 81 | 1009.5 |
| 20260506083553 | 63 | 0 | 0.0 | 3.5 | 0.00 | 0.01 | 0.00 | 80 | 1009.6 |
| 20260506083055 | 63 | 0 | 0.0 | 5.2 | 0.00 | 0.01 | 0.00 | 80 | 1009.6 |
| 20260506082552 | 63 | 122 | 0.9 | 5.2 | 0.00 | 0.01 | 0.00 | 80 | 1009.6 |
| 20260506082053 | 63 | 190 | 0.9 | 4.3 | 0.00 | 0.01 | 0.00 | 81 | 1009.5 |
| 20260506081558 | 63 | 0 | 0.0 | 4.3 | 0.00 | 0.01 | 0.00 | 80 | 1009.5 |
| 20260506081053 | 63 | 0 | 0.0 | 4.3 | 0.00 | 0.01 | 0.00 | 80 | 1009.6 |
| 20260506080553 | 63 | 0 | 0.0 | 4.3 | 0.00 | 0.01 | 0.00 | 80 | 1009.6 |
| 20260506080104 | 63 | 0 | 0.9 | 4.3 | 0.00 | 0.01 | 0.00 | 80 | 1009.6 |
| 20260506073057 | 63 | 0 | 0.0 | 3.5 | 0.00 | 0.01 | 0.00 | 78 | 1009.8 |
| 20260506072553 | 63 | 0 | 0.0 | 3.5 | 0.00 | 0.01 | 0.00 | 78 | 1009.8 |
| 20260506072052 | 63 | 0 | 0.9 | 3.5 | 0.00 | 0.01 | 0.00 | 79 | 1009.6 |
| 20260506071621 | 63 | 190 | 0.0 | 2.6 | 0.00 | 0.01 | 0.00 | 79 | 1009.8 |
| 20260506071052 | 63 | 169 | 0.0 | 2.6 | 0.00 | 0.01 | 0.00 | 79 | 1009.8 |
| 20260506070552 | 63 | 0 | 0.0 | 1.7 | 0.00 | 0.01 | 0.00 | 78 | 1009.8 |
| 20260506062053 | 64 | 0 | 0.0 | 3.5 | 0.00 | 0.01 | 0.00 | 75 | 1010.1 |
| 20260506061556 | 64 | 0 | 0.0 | 1.7 | 0.00 | 0.01 | 0.00 | 75 | 1010.1 |
| 20260506061053 | 64 | 0 | 0.0 | 3.5 | 0.00 | 0.01 | 0.00 | 75 | 1010.2 |
| 20260506060555 | 64 | 0 | 0.0 | 3.5 | 0.00 | 0.01 | 0.00 | 74 | 1010.3 |
| 20260506051052 | 65 | 0 | 0.0 | 5.2 | 0.00 | 0.01 | 0.00 | 71 | 1010.4 |
| 20260506050553 | 65 | 0 | 0.0 | 5.2 | 0.00 | 0.01 | 0.00 | 71 | 1010.5 |
| 20260506045052 | 65 | 0 | 0.0 | 3.5 | 0.00 | 0.01 | 0.00 | 70 | 1010.6 |
| 20260506044610 | 65 | 0 | 0.0 | 4.3 | 0.00 | 0.01 | 0.00 | 70 | 1010.6 |
| 20260506044052 | 65 | 244 | 0.0 | 4.3 | 0.00 | 0.01 | 0.00 | 70 | 1010.6 |
| 20260506043552 | 65 | 188 | 0.0 | 6.1 | 0.00 | 0.01 | 0.00 | 70 | 1010.5 |
| 20260506043058 | 65 | 0 | 0.0 | 6.1 | 0.00 | 0.01 | 0.00 | 70 | 1010.4 |
| 20260506042553 | 65 | 140 | 0.0 | 6.1 | 0.00 | 0.01 | 0.00 | 69 | 1010.3 |
| 20260506042053 | 66 | 0 | 0.0 | 2.6 | 0.00 | 0.01 | 0.00 | 69 | 1010.5 |
| 20260506041556 | 66 | 0 | 0.0 | 2.6 | 0.00 | 0.01 | 0.00 | 69 | 1010.5 |
| 20260506041053 | 66 | 0 | 0.0 | 2.6 | 0.00 | 0.01 | 0.00 | 69 | 1010.4 |
| 20260506040553 | 66 | 0 | 0.0 | 2.6 | 0.00 | 0.01 | 0.00 | 69 | 1010.5 |
| 20260506040059 | 66 | 0 | 0.0 | 2.6 | 0.00 | 0.01 | 0.00 | 68 | 1010.5 |
| 20260506035553 | 66 | 236 | 0.0 | 2.6 | 0.00 | 0.01 | 0.01 | 68 | 1010.4 |
| 20260506035053 | 67 | 0 | 0.0 | 2.6 | 0.00 | 0.01 | 0.01 | 67 | 1010.4 |
| 20260506034557 | 67 | 0 | 0.0 | 2.6 | 0.00 | 0.01 | 0.01 | 67 | 1010.5 |
| 20260506034052 | 67 | 0 | 0.0 | 4.3 | 0.00 | 0.01 | 0.01 | 66 | 1010.3 |
| 20260506033552 | 67 | 0 | 0.0 | 4.3 | 0.00 | 0.01 | 0.01 | 66 | 1010.3 |
| 20260506033055 | 68 | 236 | 0.0 | 5.2 | 0.00 | 0.01 | 0.01 | 66 | 1010.4 |
| 20260506032553 | 68 | 0 | 1.7 | 7.0 | 0.00 | 0.01 | 0.01 | 65 | 1010.3 |
| 20260506032053 | 68 | 187 | 1.7 | 7.0 | 0.00 | 0.01 | 0.01 | 66 | 1010.3 |
| 20260506031557 | 68 | 224 | 0.9 | 6.1 | 0.00 | 0.01 | 0.01 | 66 | 1010.3 |
| 20260506031055 | 68 | 188 | 0.9 | 6.1 | 0.00 | 0.01 | 0.01 | 65 | 1010.3 |
| 20260506030553 | 68 | 219 | 0.9 | 6.1 | 0.00 | 0.01 | 0.01 | 65 | 1010.3 |
| 20260506030056 | 68 | 184 | 0.9 | 7.0 | 0.00 | 0.01 | 0.01 | 64 | 1010.3 |
| 20260506025552 | 68 | 222 | 2.6 | 7.0 | 0.00 | 0.01 | 0.01 | 64 | 1010.3 |
| 20260506025052 | 68 | 154 | 0.9 | 7.0 | 0.00 | 0.01 | 0.01 | 64 | 1010.4 |
| 20260506024558 | 69 | 0 | 1.7 | 7.8 | 0.00 | 0.01 | 0.01 | 63 | 1010.3 |
| 20260506024055 | 69 | 201 | 3.5 | 7.8 | 0.00 | 0.01 | 0.01 | 63 | 1010.3 |
| 20260506023552 | 69 | 175 | 1.7 | 9.6 | 0.00 | 0.01 | 0.01 | 62 | 1010.3 |
| 20260506023055 | 69 | 155 | 1.7 | 9.6 | 0.00 | 0.01 | 0.01 | 62 | 1010.3 |
| 20260506022553 | 69 | 5 | 0.9 | 4.3 | 0.00 | 0.01 | 0.01 | 60 | 1010.3 |
| 20260506022053 | 70 | 0 | 0.9 | 3.5 | 0.00 | 0.01 | 0.01 | 59 | 1010.4 |
| 20260506021558 | 70 | 180 | 0.9 | 8.7 | 0.00 | 0.01 | 0.01 | 58 | 1010.3 |
| 20260506021053 | 71 | 188 | 1.7 | 8.7 | 0.00 | 0.01 | 0.01 | 57 | 1010.3 |
| 20260506020555 | 70 | 235 | 2.6 | 5.2 | 0.00 | 0.01 | 0.01 | 56 | 1010.1 |
| 20260506020055 | 71 | 180 | 0.9 | 5.2 | 0.00 | 0.01 | 0.01 | 55 | 1010.2 |
| 20260506015553 | 71 | 213 | 1.7 | 6.1 | 0.00 | 0.01 | 0.01 | 54 | 1010.2 |
| 20260506015055 | 71 | 186 | 1.7 | 6.1 | 0.00 | 0.01 | 0.01 | 53 | 1010.2 |
| 20260506014556 | 72 | 199 | 2.6 | 7.0 | 0.00 | 0.01 | 0.01 | 52 | 1010.1 |
| 20260506014054 | 72 | 196 | 2.6 | 7.0 | 0.00 | 0.01 | 0.01 | 52 | 1010.1 |
| 20260506013552 | 72 | 196 | 1.7 | 6.1 | 0.00 | 0.01 | 0.01 | 51 | 1010.1 |
| 20260506013059 | 72 | 203 | 1.7 | 7.8 | 0.00 | 0.01 | 0.01 | 51 | 1010.0 |
| 20260506012552 | 73 | 236 | 0.0 | 10.4 | 0.00 | 0.01 | 0.01 | 51 | 1009.9 |
| 20260506012058 | 73 | 192 | 1.7 | 10.4 | 0.00 | 0.01 | 0.01 | 49 | 1009.9 |
| 20260506011555 | 73 | 188 | 1.7 | 5.2 | 0.00 | 0.01 | 0.01 | 50 | 1009.8 |
| 20260506011052 | 73 | 205 | 0.0 | 7.8 | 0.00 | 0.01 | 0.01 | 50 | 1009.6 |
| 20260506010553 | 73 | 189 | 0.0 | 7.8 | 0.00 | 0.01 | 0.01 | 49 | 1009.6 |
| 20260506010058 | 73 | 209 | 0.0 | 12.2 | 0.00 | 0.01 | 0.01 | 50 | 1009.4 |
| 20260506005553 | 74 | 185 | 1.7 | 12.2 | 0.00 | 0.01 | 0.01 | 50 | 1009.4 |
| 20260506005053 | 74 | 0 | 0.9 | 7.8 | 0.00 | 0.01 | 0.01 | 50 | 1009.4 |
| 20260506004558 | 74 | 0 | 0.9 | 9.6 | 0.00 | 0.01 | 0.01 | 49 | 1009.2 |
| 20260506004053 | 73 | 190 | 0.9 | 9.6 | 0.00 | 0.01 | 0.01 | 49 | 1009.2 |
| 20260506003557 | 73 | 0 | 0.0 | 4.3 | 0.00 | 0.01 | 0.01 | 49 | 1009.2 |
| 20260506003112 | 74 | 0 | 0.0 | 7.8 | 0.00 | 0.01 | 0.01 | 50 | 1009.2 |
| 20260506002552 | 74 | 0 | 0.0 | 7.8 | 0.00 | 0.01 | 0.01 | 50 | 1009.1 |
| 20260506002053 | 74 | 180 | 0.9 | 7.0 | 0.00 | 0.01 | 0.01 | 49 | 1009.1 |
| 20260506001611 | 74 | 186 | 0.0 | 7.0 | 0.00 | 0.01 | 0.01 | 49 | 1009.1 |
| 20260506001053 | 74 | 194 | 0.0 | 5.2 | 0.00 | 0.01 | 0.01 | 48 | 1009.1 |
| 20260506000553 | 74 | 0 | 0.0 | 5.2 | 0.00 | 0.01 | 0.01 | 48 | 1009.1 |
| 20260506000058 | 73 | 0 | 0.0 | 4.3 | 0.00 | 0.01 | 0.01 | 48 | 1009.0 |
| 20260505235552 | 74 | 0 | 0.0 | 4.3 | 0.00 | 0.01 | 0.01 | 46 | 1009.0 |
| 20260505235052 | 74 | 0 | 0.0 | 4.3 | 0.00 | 0.01 | 0.01 | 47 | 1008.9 |
| 20260505234611 | 74 | 0 | 0.0 | 4.3 | 0.00 | 0.01 | 0.01 | 46 | 1009.0 |
| 20260505234053 | 74 | 0 | 0.0 | 3.5 | 0.00 | 0.01 | 0.01 | 45 | 1008.8 |
| 20260505233553 | 75 | 0 | 0.0 | 8.7 | 0.00 | 0.01 | 0.01 | 44 | 1008.9 |
| 20260505233057 | 75 | 0 | 0.0 | 8.7 | 0.00 | 0.01 | 0.01 | 43 | 1008.8 |
| 20260505232553 | 75 | 0 | 0.0 | 5.2 | 0.00 | 0.01 | 0.01 | 43 | 1008.7 |
| 20260505232056 | 76 | 0 | 0.0 | 5.2 | 0.00 | 0.01 | 0.01 | 43 | 1008.6 |
| 20260505231557 | 76 | 0 | 0.0 | 6.1 | 0.00 | 0.01 | 0.01 | 42 | 1008.6 |
| 20260505231052 | 76 | 0 | 0.0 | 6.1 | 0.00 | 0.01 | 0.01 | 42 | 1008.6 |
| 20260505230553 | 76 | 186 | 0.0 | 8.7 | 0.00 | 0.01 | 0.01 | 42 | 1008.5 |
| 20260505230053 | 76 | 0 | 0.0 | 9.6 | 0.00 | 0.01 | 0.01 | 43 | 1008.6 |
| 20260505225556 | 76 | 0 | 0.0 | 9.6 | 0.00 | 0.01 | 0.01 | 43 | 1008.6 |
| 20260505225053 | 76 | 183 | 0.9 | 6.1 | 0.00 | 0.01 | 0.01 | 41 | 1008.6 |
| 20260505224554 | 76 | 225 | 0.0 | 5.2 | 0.00 | 0.01 | 0.01 | 42 | 1008.5 |
| 20260505224055 | 77 | 0 | 0.0 | 7.8 | 0.00 | 0.01 | 0.01 | 41 | 1008.3 |
| 20260505223554 | 77 | 0 | 0.0 | 10.4 | 0.00 | 0.01 | 0.01 | 40 | 1008.5 |
| 20260505223108 | 77 | 0 | 0.9 | 10.4 | 0.00 | 0.01 | 0.01 | 41 | 1008.3 |
| 20260505222553 | 77 | 0 | 0.9 | 6.1 | 0.00 | 0.01 | 0.01 | 39 | 1008.3 |
| 20260505222053 | 77 | 0 | 0.0 | 4.3 | 0.00 | 0.01 | 0.01 | 39 | 1008.3 |
| 20260505221557 | 77 | 0 | 0.0 | 7.8 | 0.00 | 0.01 | 0.01 | 38 | 1008.4 |
| 20260505221054 | 78 | 0 | 0.0 | 7.8 | 0.00 | 0.01 | 0.01 | 40 | 1008.4 |
| 20260505220553 | 78 | 0 | 0.0 | 6.1 | 0.00 | 0.01 | 0.01 | 41 | 1008.5 |
| 20260505220100 | 78 | 0 | 0.0 | 9.6 | 0.00 | 0.01 | 0.01 | 38 | 1008.5 |
| 20260505215558 | 78 | 146 | 0.0 | 9.6 | 0.00 | 0.01 | 0.01 | 40 | 1008.5 |
| 20260505215053 | 78 | 216 | 0.9 | 9.6 | 0.00 | 0.01 | 0.01 | 38 | 1008.4 |
| 20260505214602 | 78 | 0 | 0.0 | 10.4 | 0.00 | 0.01 | 0.01 | 40 | 1008.2 |
| 20260505214053 | 78 | 0 | 0.0 | 10.4 | 0.00 | 0.01 | 0.01 | 38 | 1008.2 |
| 20260505213553 | 78 | 228 | 0.9 | 9.6 | 0.00 | 0.01 | 0.01 | 38 | 1008.1 |
| 20260505213055 | 78 | 146 | 2.6 | 9.6 | 0.00 | 0.01 | 0.01 | 40 | 1008.2 |
| 20260505212553 | 78 | 196 | 0.0 | 13.9 | 0.00 | 0.01 | 0.01 | 37 | 1008.0 |
| 20260505212053 | 78 | 0 | 1.7 | 13.9 | 0.00 | 0.01 | 0.01 | 38 | 1008.0 |
| 20260505211617 | 78 | 134 | 1.7 | 12.2 | 0.00 | 0.01 | 0.01 | 36 | 1007.9 |
| 20260505211054 | 79 | 0 | 0.9 | 9.6 | 0.00 | 0.01 | 0.01 | 38 | 1007.8 |
| 20260505210553 | 79 | 93 | 1.7 | 9.6 | 0.00 | 0.01 | 0.01 | 37 | 1007.7 |
| 20260505210056 | 79 | 245 | 0.0 | 12.2 | 0.00 | 0.01 | 0.01 | 38 | 1008.0 |
| 20260505205552 | 80 | 0 | 2.6 | 12.2 | 0.00 | 0.01 | 0.01 | 35 | 1007.8 |
| 20260505205052 | 80 | 177 | 2.6 | 9.6 | 0.00 | 0.01 | 0.01 | 36 | 1007.8 |
| 20260505204556 | 80 | 0 | 0.0 | 9.6 | 0.00 | 0.01 | 0.01 | 34 | 1007.8 |
| 20260505204057 | 80 | 192 | 2.6 | 13.0 | 0.00 | 0.01 | 0.01 | 35 | 1007.9 |
| 20260505203554 | 80 | 0 | 2.6 | 13.0 | 0.00 | 0.01 | 0.01 | 36 | 1007.9 |
| 20260505203114 | 81 | 190 | 0.9 | 8.7 | 0.00 | 0.01 | 0.01 | 37 | 1008.0 |
| 20260505202554 | 81 | 196 | 0.9 | 15.6 | 0.00 | 0.01 | 0.01 | 37 | 1007.9 |
| 20260505202054 | 80 | 0 | 0.0 | 15.6 | 0.00 | 0.01 | 0.01 | 38 | 1008.0 |
| 20260505201555 | 80 | 227 | 2.6 | 15.6 | 0.00 | 0.01 | 0.01 | 36 | 1008.0 |
| 20260505201053 | 81 | 177 | 1.7 | 11.3 | 0.00 | 0.01 | 0.01 | 35 | 1007.9 |
| 20260505200553 | 80 | 0 | 1.7 | 10.4 | 0.00 | 0.01 | 0.01 | 37 | 1007.9 |
| 20260505200055 | 80 | 221 | 2.6 | 9.6 | 0.00 | 0.01 | 0.01 | 38 | 1008.0 |
| 20260505195552 | 80 | 176 | 3.5 | 13.9 | 0.00 | 0.01 | 0.01 | 37 | 1008.1 |
| 20260505195052 | 81 | 209 | 2.6 | 13.9 | 0.00 | 0.01 | 0.01 | 40 | 1008.0 |
| 20260505194554 | 81 | 171 | 1.7 | 7.8 | 0.00 | 0.01 | 0.01 | 38 | 1008.1 |
| 20260505194053 | 81 | 0 | 0.0 | 7.8 | 0.00 | 0.01 | 0.01 | 44 | 1008.2 |
| 20260505193553 | 80 | 163 | 0.9 | 13.0 | 0.00 | 0.01 | 0.01 | 45 | 1008.2 |
| 20260505193051 | 80 | 177 | 0.9 | 13.0 | 0.00 | 0.01 | 0.01 | 43 | 1008.3 |
| 20260505192557 | 81 | 179 | 0.9 | 11.3 | 0.00 | 0.01 | 0.01 | 42 | 1008.3 |
| 20260505192054 | 81 | 0 | 0.0 | 13.9 | 0.00 | 0.01 | 0.01 | 45 | 1008.3 |
| 20260505191556 | 81 | 200 | 2.6 | 13.9 | 0.00 | 0.01 | 0.01 | 42 | 1008.4 |
| 20260505191053 | 81 | 186 | 2.6 | 10.4 | 0.00 | 0.01 | 0.01 | 42 | 1008.5 |
| 20260505190553 | 81 | 200 | 0.9 | 8.7 | 0.00 | 0.01 | 0.01 | 42 | 1008.5 |
| 20260505190056 | 81 | 0 | 0.9 | 8.7 | 0.00 | 0.01 | 0.01 | 42 | 1008.6 |
| 20260505185553 | 81 | 145 | 0.0 | 13.9 | 0.00 | 0.01 | 0.01 | 45 | 1008.7 |
| 20260505185053 | 81 | 205 | 1.7 | 13.9 | 0.00 | 0.01 | 0.01 | 45 | 1008.7 |
| 20260505184554 | 81 | 188 | 2.6 | 13.9 | 0.00 | 0.01 | 0.01 | 41 | 1008.7 |
| 20260505184054 | 81 | 207 | 1.7 | 12.2 | 0.00 | 0.01 | 0.01 | 44 | 1008.7 |
| 20260505183553 | 81 | 0 | 2.6 | 11.3 | 0.00 | 0.01 | 0.01 | 44 | 1008.8 |
| 20260505183055 | 80 | 224 | 2.6 | 9.6 | 0.00 | 0.01 | 0.01 | 44 | 1008.9 |
| 20260505182555 | 80 | 0 | 0.9 | 8.7 | 0.00 | 0.01 | 0.01 | 46 | 1008.9 |
| 20260505182054 | 80 | 0 | 0.0 | 7.8 | 0.00 | 0.01 | 0.01 | 47 | 1009.1 |
| 20260505181555 | 80 | 179 | 0.9 | 8.7 | 0.00 | 0.01 | 0.01 | 46 | 1009.2 |
| 20260505181052 | 81 | 173 | 0.9 | 8.7 | 0.00 | 0.01 | 0.01 | 44 | 1009.1 |
| 20260505180553 | 81 | 190 | 1.7 | 6.1 | 0.00 | 0.01 | 0.01 | 42 | 1009.1 |
| 20260505175553 | 81 | 0 | 0.9 | 8.7 | 0.00 | 0.01 | 0.01 | 43 | 1009.3 |
| 20260505175055 | 81 | 161 | 0.9 | 10.4 | 0.00 | 0.01 | 0.01 | 43 | 1009.3 |
| 20260505174556 | 80 | 0 | 0.0 | 10.4 | 0.00 | 0.01 | 0.01 | 46 | 1009.3 |
| 20260505174053 | 80 | 0 | 1.7 | 11.3 | 0.00 | 0.01 | 0.01 | 41 | 1009.4 |
| 20260505173552 | 80 | 185 | 4.3 | 15.6 | 0.00 | 0.01 | 0.01 | 43 | 1009.2 |
| 20260505173056 | 80 | 128 | 2.6 | 15.6 | 0.00 | 0.01 | 0.01 | 44 | 1009.3 |
| 20260505172556 | 80 | 0 | 0.0 | 5.2 | 0.00 | 0.01 | 0.01 | 47 | 1009.4 |
| 20260505172052 | 80 | 0 | 0.0 | 8.7 | 0.00 | 0.01 | 0.01 | 48 | 1009.4 |
| 20260505171558 | 79 | 196 | 0.0 | 10.4 | 0.00 | 0.01 | 0.01 | 48 | 1009.6 |
| 20260505171053 | 79 | 0 | 0.9 | 10.4 | 0.00 | 0.01 | 0.01 | 47 | 1009.6 |
| 20260505170553 | 80 | 153 | 0.0 | 5.2 | 0.00 | 0.01 | 0.01 | 50 | 1009.5 |
| 20260505170055 | 79 | 0 | 0.0 | 7.0 | 0.00 | 0.01 | 0.01 | 49 | 1009.8 |
| 20260505165552 | 79 | 0 | 0.0 | 7.0 | 0.00 | 0.01 | 0.01 | 46 | 1010.0 |
| 20260505165052 | 79 | 0 | 0.0 | 6.1 | 0.00 | 0.01 | 0.01 | 49 | 1009.9 |
| 20260505164556 | 79 | 177 | 0.0 | 6.1 | 0.00 | 0.01 | 0.01 | 53 | 1010.0 |
| 20260505164055 | 79 | 0 | 0.0 | 4.3 | 0.00 | 0.01 | 0.01 | 52 | 1010.1 |
| 20260505163554 | 79 | 0 | 0.0 | 4.3 | 0.00 | 0.01 | 0.01 | 50 | 1010.1 |
| 20260505163052 | 79 | 0 | 0.0 | 4.3 | 0.00 | 0.01 | 0.01 | 48 | 1010.1 |